Temperature
23 21 20 22 27 30 28 28 29 28 27 26 26 26 26 25 25 23 20 19 19 18 18 18 18 18 18 18 18 18 18 18 18 18 18 18 18 18 18 18 18 18 18 18 18 18 18 18 18
21 21 22 26 30 29 28 29 28 27 27 26 26 26 26 24 22 21 20 19 19 19 18 18 18 18 18 18 18 18 18 18 18 18 18 18 18 18 18 18 18 18 18 18 18 18 18 18 18
21 22 25 30 30 29 28 29 28 27 26 26 26 25 25 23 22 21 20 19 19 18 18 18 18 18 18 18 18 18 18 18 18 18 18 18 18 18 18 18 18 18 18 18 18 18 18 18 18
22 25 28 31 30 29 29 29 28 28 27 26 26 25 23 21 21 20 19 19 19 19 18 18 18 18 18 18 18 18 18 18 18 18 18 18 18 18 18 18 18 18 18 18 18 18 18 18 18
24 29 32 31 30 30 30 29 28 29 28 26 26 25 23 21 20 20 19 19 19 19 18 18 18 18 18 18 18 18 18 18 18 18 18 18 18 18 18 18 18 18 18 18 18 17 18 18 18
28 31 32 31 30 30 30 29 29 28 27 26 26 25 22 20 20 20 19 19 19 19 19 18 18 18 18 18 18 18 18 18 18 18 18 18 18 18 18 18 18 18 18 18 18 17 17 17 18
30 32 32 31 31 30 30 29 29 29 28 26 26 26 23 21 20 20 19 19 19 19 19 18 18 18 18 18 18 18 18 18 18 18 18 18 18 18 18 18 18 18 17 17 17 17 17 17 17
29 32 32 32 31 30 30 29 28 28 27 26 26 26 24 21 20 20 20 19 19 19 19 18 18 18 18 18 18 18 18 18 18 18 18 18 18 18 18 17 17 17 17 17 17 17 17 17 18
29 32 32 32 31 31 30 29 28 27 27 26 25 25 24 21 20 20 20 19 19 18 18 19 19 18 18 18 18 18 18 18 18 18 18 18 17 17 17 17 17 18 17 17 17 17 17 17 17
31 33 32 32 32 32 30 30 28 28 28 26 25 24 22 21 21 21 21 20 20 19 19 19 19 18 18 18 18 18 18 18 17 17 17 17 17 17 17 18 18 18 18 17 17 17 17 17 17
32 32 33 32 32 31 31 30 29 29 29 28 26 24 22 22 22 22 22 21 20 20 19 19 19 18 18 18 18 18 18 18 17 17 17 17 17 17 17 17 17 17 17 17 17 17 17 17 17
32 33 32 32 31 31 31 30 30 29 29 27 26 24 23 22 22 22 22 21 21 20 19 19 18 18 18 18 18 18 18 18 18 17 17 17 17 17 17 17 17 17 17 17 17 17 17 17 17
32 33 32 31 31 31 30 30 30 29 27 26 25 24 24 23 23 22 22 21 20 20 19 19 18 18 18 18 18 18 18 18 18 18 17 17 18 18 18 17 17 17 17 17 17 17 17 17 17
33 32 32 32 31 30 31 30 30 29 27 26 25 25 24 24 23 22 21 21 20 20 19 19 18 18 19 18 18 18 18 18 18 18 18 17 18 18 18 17 17 17 17 17 17 17 17 17 17
32 33 32 32 31 31 31 31 31 29 27 26 26 25 24 24 23 22 22 21 21 20 19 19 19 19 19 18 18 18 18 18 18 18 18 18 18 18 18 18 17 17 17 17 17 17 17 17 18
33 33 32 32 32 31 31 31 31 28 28 27 26 25 25 24 23 22 22 21 21 20 19 19 19 19 19 19 18 18 18 18 18 18 18 18 18 18 18 18 18 17 18 17 17 18 18 18 18
33 33 33 32 32 32 32 32 31 29 28 28 27 26 25 24 23 23 22 21 21 20 20 19 19 19 19 19 19 18 18 18 18 18 18 18 18 18 18 18 18 18 18 18 18 18 18 18 18
32 33 33 32 32 32 32 32 32 30 29 29 27 26 25 25 24 23 22 21 21 20 20 20 19 19 19 19 19 19 18 18 18 18 18 18 18 18 18 18 18 18 18 18 18 17 18 18 18
33 33 33 33 33 32 32 32 32 31 30 29 28 27 26 25 25 24 22 22 21 21 20 20 20 19 19 19 19 19 19 19 18 18 18 18 18 18 18 18 18 18 18 18 18 18 18 18 18
32 32 33 33 32 32 32 32 33 32 30 30 29 28 27 26 25 24 23 22 21 21 21 20 20 20 20 19 19 19 19 19 19 19 18 18 18 18 18 18 18 18 18 18 18 18 18 18 18
32 32 32 32 32 32 32 32 32 32 31 30 29 28 28 27 26 24 23 23 22 21 21 21 21 20 20 20 19 19 19 19 19 19 19 18 18 18 18 18 18 18 18 18 18 18 18 18 18
31 33 32 32 31 32 32 31 32 32 31 31 30 29 28 27 26 25 24 23 23 22 22 21 21 21 20 20 20 19 19 19 19 19 19 18 18 18 18 18 18 18 18 18 18 18 18 18 18
32 32 32 32 31 31 31 31 32 32 32 32 31 30 29 28 27 26 25 24 23 23 22 21 21 21 21 20 20 20 19 19 19 19 19 19 18 18 18 18 18 18 18 18 18 18 18 18 18
31 31 31 31 32 30 31 31 32 33 32 32 32 30 29 28 27 26 25 24 23 23 22 21 21 21 21 21 20 20 20 19 19 19 19 19 19 19 18 18 18 18 18 18 18 18 18 18 18
31 31 30 30 30 30 31 31 32 32 32 32 31 30 29 28 27 26 25 24 23 22 22 22 22 22 21 21 20 20 20 20 19 19 19 19 19 19 19 19 18 18 18 18 18 18 18 18 18
31 31 30 29 30 31 30 31 32 32 31 30 30 29 29 28 27 26 25 24 23 23 22 22 22 22 21 21 21 20 20 20 19 19 19 19 19 19 19 19 19 18 18 18 18 18 18 18 18
31 31 32 31 30 30 31 31 32 31 31 30 30 29 28 27 27 26 25 24 23 23 22 22 22 22 22 21 21 21 20 20 20 19 19 19 19 19 19 19 19 18 18 18 18 18 18 17 17
31 31 31 30 29 29 30 30 31 30 30 30 29 28 28 27 26 26 25 24 24 23 22 22 22 22 21 21 21 20 20 20 20 20 19 19 19 19 19 19 19 18 18 18 18 18 17 17 17
30 30 30 30 30 29 29 30 31 30 29 29 29 27 27 26 26 26 25 24 24 23 22 21 21 21 21 21 21 20 20 20 20 20 20 19 19 19 19 19 19 18 18 18 18 18 18 17 17
30 30 30 29 28 29 30 30 30 29 29 28 27 26 25 25 25 25 24 24 23 23 22 21 21 20 20 20 20 20 20 20 20 20 20 19 19 19 19 19 18 18 18 18 18 18 17 17 17
Wind_Speed
15 12 7 4 3 6 13 11 10 8 7 8 7 6 8 9 8 6 5 6 6 6 8 9 9 8 9 10 11 12 13 13 14 14 15 16 16 17 17 17 17 17 17 17 18 18 17 16 16
11 7 5 4 4 10 12 11 11 10 8 6 7 7 8 9 9 7 6 6 6 7 8 10 10 9 9 10 10 11 12 13 14 14 14 14 15 15 16 16 16 16 17 17 17 17 16 15 15
8 6 4 2 10 12 12 10 10 8 6 5 6 7 7 7 7 6 7 7 7 8 9 11 9 9 9 10 10 12 13 13 13 14 14 15 15 15 15 15 15 15 15 16 16 16 15 15 14
5 5 3 5 13 12 10 8 7 7 7 6 6 8 8 7 5 7 9 8 8 8 9 11 9 9 10 11 11 13 13 13 13 14 14 15 15 14 14 15 15 14 14 15 15 15 15 14 13
5 3 3 10 13 10 9 7 5 6 6 6 7 9 9 7 9 10 9 8 8 8 9 11 10 9 10 11 12 12 13 13 13 13 14 14 14 14 14 14 14 14 14 14 14 13 13 12 11
3 2 6 11 12 9 8 6 6 8 8 7 8 9 8 7 9 9 9 8 8 8 9 11 11 10 10 10 11 12 12 13 13 13 13 13 13 12 12 13 13 13 14 14 13 12 12 11 10
3 4 8 10 9 8 6 5 6 6 7 6 5 8 8 8 9 9 9 8 7 8 8 8 10 11 11 10 10 11 11 11 12 12 11 12 12 12 11 11 12 13 13 13 12 12 11 10 9
4 2 6 8 8 9 6 5 5 5 8 6 3 5 8 10 10 9 9 8 7 6 7 7 8 9 9 11 10 10 10 11 11 11 10 11 12 12 12 12 13 13 12 12 12 11 10 9 8
3 1 7 8 7 7 6 6 5 5 7 5 4 6 11 14 12 10 9 9 8 7 6 6 7 8 8 9 10 10 10 10 10 10 10 8 8 10 11 12 13 12 12 11 11 10 9 8 9
2 4 8 6 5 5 5 5 6 5 6 7 8 10 13 14 12 11 10 9 9 8 7 6 6 7 7 7 8 7 8 8 6 7 8 7 7 7 10 14 12 11 11 11 10 9 9 8 8
1 3 4 4 4 3 5 5 5 4 5 6 9 13 14 13 11 10 9 9 9 8 7 6 6 5 6 6 6 5 5 6 6 7 6 6 6 7 8 8 10 10 11 9 10 9 7 4 3
2 1 1 2 4 3 4 5 4 2 5 7 10 13 14 13 11 10 9 8 8 8 7 6 6 5 4 4 5 5 5 5 5 6 5 6 4 4 5 5 6 7 6 6 6 4 5 4 4
3 1 1 2 4 4 5 4 3 4 6 9 12 13 13 12 10 9 8 8 7 7 7 7 6 5 5 4 3 4 4 5 6 5 5 4 4 4 5 4 4 5 6 6 5 5 4 3 4
1 1 2 3 4 4 4 4 4 5 9 11 12 12 12 11 10 9 9 8 8 7 8 7 7 6 6 5 4 4 4 4 5 5 5 4 3 4 4 4 4 4 5 4 4 4 4 4 3
3 3 4 5 4 4 4 5 5 8 11 12 12 12 11 11 10 10 9 9 8 8 8 8 8 7 6 6 5 5 5 5 4 5 5 5 4 4 4 4 4 4 5 5 5 4 4 4 4
6 7 5 5 6 5 7 2 7 10 12 12 12 12 12 11 11 10 9 9 8 8 8 8 7 8 7 6 4 4 4 5 4 5 5 5 4 5 4 3 4 4 5 5 4 4 4 4 4
9 8 5 5 7 6 8 4 6 10 12 12 12 13 12 12 11 10 10 10 9 9 9 9 8 8 7 6 5 4 4 4 4 4 5 6 6 6 5 3 3 4 4 4 4 4 4 4 4
8 8 7 6 6 8 9 7 5 10 12 12 13 13 13 13 13 12 11 11 10 10 9 9 9 8 8 7 5 4 5 5 5 4 5 6 6 6 5 4 4 4 3 3 3 3 3 3 4
9 9 9 6 4 7 10 9 6 9 12 12 13 14 14 13 13 12 12 11 11 11 11 10 10 9 8 7 6 6 6 5 5 5 6 6 6 7 6 4 4 4 4 4 4 4 4 4 3
11 11 10 6 4 7 9 10 8 9 12 12 13 14 15 14 14 14 13 13 13 13 12 12 12 11 10 8 6 5 4 4 5 4 5 7 7 7 7 5 5 5 4 4 4 4 3 3 3
13 12 10 8 6 8 9 11 10 9 11 11 12 13 14 15 15 15 15 15 14 14 14 12 12 12 11 9 7 6 5 5 5 6 5 6 7 7 6 6 5 4 5 4 5 5 5 4 4
13 10 9 9 9 8 8 9 7 8 10 12 13 13 14 15 16 15 16 16 16 15 14 13 13 12 12 11 9 9 7 6 6 5 5 6 7 7 7 7 6 5 5 4 6 6 4 5 4
9 5 8 9 11 10 10 10 7 7 9 10 11 12 13 14 16 16 17 16 15 15 14 13 13 12 12 12 11 10 9 7 5 5 5 6 6 7 7 7 6 6 5 5 5 4 5 5 5
7 6 6 9 11 13 11 11 9 6 7 7 8 9 10 12 13 14 15 14 14 14 14 13 13 13 13 13 12 12 10 8 6 6 6 6 6 6 7 7 6 6 5 5 6 6 6 5 5
11 11 9 10 11 11 7 10 8 3 3 5 5 5 7 9 11 13 15 15 15 15 15 14 14 13 13 13 13 12 11 9 8 7 7 6 5 5 6 6 6 6 6 6 6 6 6 6 6
14 16 13 11 11 9 8 10 6 2 3 3 4 3 4 7 10 12 14 14 14 15 15 14 15 14 13 13 12 11 11 9 8 8 6 6 5 5 5 6 6 6 6 6 6 6 6 6 6
14 15 14 13 13 12 9 8 6 4 4 3 3 2 3 4 6 9 12 13 14 15 15 15 14 14 14 13 12 11 11 9 8 7 8 7 6 5 6 6 7 7 6 6 6 5 5 5 6
11 12 10 12 12 13 12 12 8 5 4 3 1 1 1 2 4 7 10 12 13 14 14 14 14 13 13 13 11 10 10 10 9 8 8 7 7 6 6 6 6 6 6 6 6 6 5 6 6
10 11 10 11 12 13 13 8 2 2 2 2 1 0 0 0 2 5 7 10 11 12 13 13 13 13 12 11 11 10 9 9 9 8 8 8 8 8 8 7 7 7 7 6 7 7 6 7 7
11 12 13 12 11 12 14 7 3 1 0 0 0 1 1 1 1 3 5 8 9 11 12 12 11 11 11 10 10 10 9 9 9 9 9 8 8 8 8 8 8 8 7 7 7 8 7 7 7
Wind_Direction
167 174 198 229 227 68 55 53 54 57 58 58 56 54 55 44 37 73 85 87 85 90 92 94 85 93 98 103 107 110 112 113 116 118 120 122 121 120 124 125 126 127 127 127 126 125 125 123 122
167 178 221 246 23 59 59 53 57 58 74 83 70 66 67 63 61 90 103 100 104 97 95 91 93 97 103 106 109 115 118 117 116 120 122 123 122 123 125 126 127 128 128 126 125 125 126 126 126
174 215 263 16 48 51 57 57 66 76 80 78 75 59 55 68 79 92 107 121 115 101 99 97 101 105 107 108 108 115 120 119 118 121 124 125 127 128 127 127 128 130 128 125 127 129 130 130 129
202 224 233 54 59 57 61 67 76 83 80 76 87 83 74 63 76 103 119 122 112 109 109 104 106 107 108 109 108 111 116 117 120 124 127 128 128 128 130 132 133 132 130 127 130 132 132 132 131
244 263 79 68 65 66 67 68 67 66 75 84 88 93 87 75 96 113 124 122 115 111 110 109 107 110 111 112 114 115 118 119 121 123 126 127 129 131 133 134 133 134 133 133 134 132 132 134 135
253 280 51 62 69 72 78 79 77 76 89 95 100 101 92 108 115 122 125 122 116 113 111 113 117 115 115 114 116 116 119 120 122 124 125 127 129 130 130 133 134 138 140 139 138 136 136 137 138
309 26 54 59 70 77 73 77 77 86 96 97 108 104 113 125 124 128 124 119 116 115 113 118 125 125 125 119 114 115 116 119 123 124 127 132 133 133 133 133 135 134 135 139 141 140 140 140 141
300 350 61 60 57 72 95 97 84 86 91 107 116 110 131 139 139 134 128 124 118 116 117 124 122 121 129 128 123 118 117 116 118 120 125 134 137 139 143 145 136 135 137 137 137 137 136 138 142
274 359 50 50 51 77 111 115 107 106 117 116 98 93 123 139 145 142 137 133 130 129 129 128 123 129 128 125 128 132 128 124 130 128 130 143 139 136 145 131 133 137 137 134 132 132 133 143 149
272 24 49 47 53 83 120 120 131 143 131 125 118 113 130 145 153 155 150 148 146 145 142 133 130 132 132 126 129 133 130 125 126 122 129 130 123 127 126 126 132 135 137 140 138 141 157 182 158
279 13 41 64 76 96 127 133 144 146 128 136 143 144 150 155 160 162 156 153 147 146 145 147 142 136 133 130 133 130 128 130 130 122 124 121 129 132 133 139 143 148 153 152 150 169 168 164 140
247 333 6 78 103 123 125 133 144 127 89 124 142 149 156 163 167 167 160 153 148 150 153 154 146 146 142 130 129 140 139 138 134 132 139 134 134 135 135 143 145 152 150 148 155 154 146 148 156
232 304 94 139 145 134 143 146 137 131 121 133 142 153 162 167 169 168 163 158 158 159 160 158 156 154 153 150 160 143 142 146 140 140 138 144 147 140 136 139 148 156 147 155 163 163 150 163 172
276 219 167 154 147 156 168 162 170 146 147 148 155 162 168 170 172 170 173 174 173 172 168 164 166 163 166 166 165 155 155 154 148 149 144 154 155 145 146 150 157 160 163 161 171 165 169 183 179
219 210 186 176 180 182 202 193 186 155 160 163 166 169 172 176 178 181 180 182 179 177 175 173 173 169 173 174 173 164 168 162 158 151 153 163 166 159 167 162 170 168 164 170 184 176 182 190 193
223 228 219 179 196 196 231 224 156 164 174 176 175 175 180 184 187 186 184 184 182 180 178 183 183 172 176 178 180 174 176 164 164 166 164 169 167 174 187 187 178 176 182 186 185 197 199 200 208
224 240 240 186 196 208 234 267 158 176 185 186 185 184 186 188 194 191 190 187 186 185 183 183 186 179 180 178 182 184 176 183 181 175 173 171 177 181 193 196 179 192 193 199 210 192 209 208 213
238 246 241 232 200 223 240 254 188 189 199 198 194 192 192 196 197 193 195 192 189 188 188 187 186 183 181 180 183 187 187 188 189 182 179 182 187 191 200 192 192 203 198 206 217 218 224 226 227
266 260 252 242 209 234 249 256 230 201 207 205 201 199 199 201 196 192 195 195 192 191 191 191 192 183 184 184 189 189 191 192 189 192 183 190 197 194 206 208 191 212 207 215 214 216 214 222 220
250 252 250 233 217 246 259 259 242 215 216 213 207 204 204 201 197 194 197 198 198 195 195 193 194 190 191 187 192 196 195 200 195 198 186 198 198 202 197 203 212 209 205 209 216 214 228 227 211
241 247 255 253 233 236 260 255 233 220 217 216 216 213 208 204 201 196 199 201 200 199 197 197 195 191 195 189 189 187 191 208 202 198 195 200 202 205 214 201 216 213 222 205 213 215 221 235 229
240 243 253 248 243 245 242 267 234 218 215 217 219 215 212 207 205 201 200 202 203 201 197 196 194 193 191 192 197 198 202 207 205 202 196 195 201 206 207 208 211 218 222 212 220 214 224 234 239
245 247 245 243 247 256 238 260 251 216 229 224 219 217 214 209 206 204 202 201 201 199 195 192 191 192 191 195 198 205 212 212 204 200 191 203 200 207 210 210 210 214 223 221 232 228 230 232 241
211 209 223 237 246 246 242 251 259 240 240 236 220 216 217 211 206 204 201 196 196 194 193 190 187 190 192 196 202 208 210 209 202 200 198 202 199 199 204 209 210 213 216 215 221 223 222 234 243
210 222 228 231 233 243 223 244 258 266 261 250 241 224 214 208 203 199 197 194 193 192 191 189 186 190 194 197 201 204 207 205 206 207 205 212 206 199 199 209 211 214 214 214 214 213 227 227 231
219 228 237 249 251 244 210 241 245 245 259 255 251 244 212 200 201 199 196 196 193 191 190 189 189 190 192 197 200 203 205 208 209 209 214 210 218 213 196 203 209 212 215 217 212 219 218 223 228
223 232 245 253 259 265 249 245 235 234 243 246 238 224 212 203 201 199 196 195 194 192 190 191 190 191 193 197 197 201 204 210 211 206 213 217 215 213 205 206 208 210 210 216 217 223 224 221 227
240 238 237 243 249 254 249 242 245 233 248 249 240 247 238 195 202 193 192 193 193 193 191 191 190 194 195 195 196 197 200 205 212 214 213 218 216 213 211 214 213 210 206 209 217 219 215 215 222
208 221 233 243 250 254 258 245 224 215 261 260 251 218 332 157 184 180 184 184 185 186 189 190 189 190 195 197 196 200 200 204 210 213 219 217 218 212 211 213 214 212 208 208 212 220 216 222 225
228 225 224 236 242 250 262 256 100 126 222 284 67 70 82 96 144 163 168 170 175 178 181 183 186 188 192 194 195 200 200 202 209 215 219 219 218 215 213 213 214 217 214 210 214 220 221 226 230
Height
1489 1490 1491 1492 1485 1480 1487 1486 1483 1486 1489 1492 1493 1493 1493 1496 1498 1508 1511 1509 1509 1508 1507 1506 1504 1504 1504 1505 1505 1506 1507 1509 1510 1512 1513 1515 1517 1519 1521 1523 1526 1528 1530 1533 1535 1538 1540 1542 1544
1491 1492 1494 1489 1478 1488 1492 1486 1487 1490 1493 1495 1496 1496 1496 1501 1505 1509 1510 1510 1510 1510 1510 1508 1507 1507 1507 1507 1508 1508 1509 1511 1513 1514 1516 1518 1520 1522 1524 1526 1529 1531 1533 1535 1537 1540 1542 1544 1546
1493 1494 1493 1480 1481 1489 1493 1488 1490 1493 1495 1496 1497 1498 1501 1505 1509 1510 1511 1512 1512 1512 1512 1510 1509 1509 1510 1510 1509 1508 1511 1513 1515 1517 1519 1521 1522 1524 1526 1529 1531 1533 1535 1537 1539 1541 1544 1546 1548
1495 1495 1489 1480 1486 1487 1487 1489 1491 1493 1496 1497 1498 1501 1506 1510 1511 1512 1512 1513 1514 1514 1514 1512 1512 1512 1512 1512 1512 1512 1513 1515 1517 1519 1521 1523 1525 1527 1529 1531 1533 1535 1537 1539 1541 1543 1545 1547 1549
1495 1490 1480 1481 1486 1487 1488 1491 1492 1492 1495 1498 1499 1503 1509 1513 1513 1513 1514 1515 1516 1516 1516 1515 1514 1514 1514 1515 1516 1516 1517 1518 1520 1522 1524 1526 1528 1529 1531 1533 1535 1537 1539 1541 1543 1545 1547 1549 1551
1493 1483 1480 1487 1489 1488 1489 1492 1493 1494 1497 1500 1502 1504 1511 1514 1514 1515 1516 1516 1517 1517 1518 1517 1516 1516 1517 1518 1518 1519 1520 1521 1523 1525 1526 1528 1530 1531 1533 1534 1536 1538 1540 1542 1544 1546 1548 1550 1552
1491 1481 1483 1484 1487 1489 1491 1493 1493 1495 1497 1501 1503 1504 1511 1514 1515 1516 1517 1518 1518 1519 1520 1520 1520 1519 1519 1520 1521 1522 1523 1524 1526 1527 1529 1530 1532 1533 1535 1536 1538 1540 1541 1544 1545 1548 1550 1551 1553
1492 1483 1480 1482 1486 1489 1492 1494 1496 1496 1500 1504 1505 1504 1510 1514 1516 1517 1518 1519 1519 1520 1521 1521 1522 1523 1523 1524 1524 1524 1525 1526 1528 1529 1530 1532 1533 1535 1536 1538 1539 1541 1543 1545 1547 1549 1551 1552 1554
1492 1483 1483 1483 1486 1488 1491 1494 1498 1500 1502 1504 1505 1506 1510 1513 1516 1518 1519 1520 1520 1521 1522 1524 1524 1525 1526 1527 1526 1527 1527 1528 1530 1531 1532 1534 1536 1537 1538 1539 1540 1542 1544 1546 1548 1550 1552 1554 1555
1489 1483 1484 1483 1484 1487 1491 1493 1497 1499 1500 1504 1507 1510 1512 1514 1516 1518 1519 1520 1521 1522 1523 1524 1525 1526 1528 1528 1528 1529 1530 1531 1532 1533 1534 1536 1537 1538 1539 1540 1542 1544 1545 1547 1549 1551 1553 1555 1557
1487 1484 1483 1484 1487 1489 1491 1493 1496 1496 1498 1502 1506 1510 1512 1514 1516 1518 1519 1521 1522 1523 1524 1525 1526 1527 1529 1529 1530 1531 1532 1532 1534 1534 1535 1537 1538 1540 1541 1542 1544 1545 1547 1549 1551 1553 1555 1557 1558
1487 1485 1486 1486 1488 1490 1491 1493 1495 1496 1499 1503 1506 1509 1512 1514 1516 1518 1519 1521 1523 1524 1525 1526 1527 1527 1528 1530 1531 1532 1533 1534 1535 1535 1536 1538 1539 1541 1542 1543 1545 1547 1548 1550 1552 1553 1555 1556 1557
1485 1485 1486 1487 1489 1490 1492 1493 1495 1497 1501 1504 1507 1509 1512 1514 1516 1518 1520 1522 1523 1524 1525 1526 1527 1527 1528 1529 1532 1533 1534 1535 1536 1536 1537 1539 1540 1541 1543 1544 1545 1548 1549 1551 1552 1554 1554 1556 1557
1485 1485 1486 1487 1488 1490 1491 1492 1495 1497 1501 1504 1507 1509 1511 1513 1516 1518 1520 1522 1523 1524 1525 1526 1527 1528 1529 1530 1531 1533 1535 1535 1537 1538 1538 1539 1541 1542 1543 1545 1546 1548 1550 1551 1552 1554 1555 1556 1557
1486 1484 1484 1486 1487 1489 1490 1490 1491 1496 1500 1503 1506 1509 1511 1513 1516 1517 1519 1521 1523 1524 1525 1526 1527 1528 1529 1530 1532 1534 1535 1536 1537 1538 1538 1539 1541 1542 1544 1545 1546 1548 1549 1550 1552 1553 1554 1555 1556
1483 1482 1484 1484 1485 1488 1490 1489 1488 1494 1498 1501 1504 1507 1510 1513 1515 1517 1519 1520 1522 1524 1525 1526 1528 1528 1529 1530 1531 1534 1535 1536 1537 1538 1539 1540 1541 1542 1543 1545 1547 1548 1549 1550 1551 1552 1553 1555 1556
1481 1483 1482 1482 1483 1484 1486 1484 1486 1492 1495 1498 1501 1504 1508 1511 1513 1515 1517 1519 1521 1522 1524 1525 1527 1528 1529 1530 1531 1533 1534 1535 1536 1537 1539 1539 1541 1542 1543 1545 1546 1547 1548 1549 1551 1552 1553 1554 1554
1482 1480 1481 1482 1479 1482 1483 1480 1482 1488 1491 1494 1498 1501 1505 1508 1511 1513 1515 1517 1519 1520 1522 1524 1525 1527 1528 1529 1530 1532 1533 1534 1535 1537 1538 1539 1540 1542 1543 1544 1544 1546 1547 1548 1549 1550 1551 1552 1552
1476 1478 1479 1477 1476 1480 1480 1478 1478 1484 1487 1490 1494 1498 1501 1504 1508 1511 1513 1515 1517 1518 1520 1522 1524 1525 1527 1528 1530 1531 1532 1533 1535 1536 1537 1538 1540 1541 1542 1544 1544 1545 1546 1547 1548 1549 1549 1550 1551
1478 1480 1477 1475 1476 1479 1477 1476 1474 1479 1482 1485 1489 1493 1497 1500 1504 1507 1510 1512 1514 1516 1517 1519 1521 1523 1525 1527 1528 1530 1531 1533 1534 1535 1535 1537 1539 1540 1541 1541 1543 1544 1544 1545 1546 1547 1548 1549 1549
1477 1478 1476 1477 1477 1477 1478 1477 1473 1473 1479 1482 1485 1488 1491 1495 1499 1503 1506 1508 1511 1513 1514 1517 1519 1521 1523 1525 1527 1529 1529 1531 1533 1533 1534 1536 1537 1538 1539 1540 1542 1542 1543 1544 1544 1545 1546 1547 1548
1478 1471 1473 1476 1480 1479 1479 1484 1471 1468 1473 1476 1480 1483 1486 1490 1494 1498 1501 1504 1506 1509 1512 1514 1516 1518 1520 1522 1525 1527 1528 1529 1530 1532 1533 1534 1535 1537 1538 1539 1540 1540 1541 1542 1543 1544 1544 1545 1546
1471 1470 1472 1474 1477 1479 1477 1482 1470 1465 1469 1469 1473 1477 1481 1485 1489 1492 1496 1499 1503 1506 1509 1511 1513 1515 1517 1519 1522 1524 1526 1527 1529 1530 1531 1532 1534 1535 1536 1537 1538 1538 1539 1540 1541 1541 1542 1542 1543
1470 1473 1475 1474 1473 1488 1478 1481 1476 1462 1465 1465 1468 1473 1477 1480 1484 1488 1492 1495 1499 1502 1505 1508 1509 1512 1514 1516 1519 1521 1523 1525 1527 1528 1529 1531 1532 1533 1534 1535 1535 1536 1537 1537 1538 1539 1539 1539 1540
1470 1477 1487 1491 1489 1483 1470 1477 1471 1460 1461 1463 1466 1469 1473 1476 1480 1483 1487 1491 1494 1497 1501 1504 1506 1508 1511 1513 1515 1518 1520 1522 1523 1525 1527 1529 1531 1531 1531 1533 1533 1534 1535 1535 1536 1536 1537 1537 1537
1466 1468 1485 1495 1489 1476 1473 1474 1463 1458 1462 1464 1466 1469 1471 1474 1476 1479 1482 1486 1489 1493 1496 1500 1502 1505 1507 1510 1513 1515 1517 1519 1521 1522 1525 1526 1528 1529 1529 1530 1530 1531 1532 1533 1533 1534 1534 1534 1534
1464 1464 1458 1469 1473 1479 1471 1464 1458 1458 1461 1463 1465 1467 1469 1471 1473 1476 1479 1482 1486 1489 1492 1495 1498 1501 1504 1507 1509 1511 1514 1516 1519 1520 1521 1523 1524 1526 1526 1527 1528 1528 1529 1530 1530 1531 1531 1532 1532
1458 1458 1463 1470 1486 1488 1475 1469 1463 1461 1460 1461 1463 1465 1467 1469 1471 1472 1475 1479 1482 1485 1489 1492 1494 1497 1501 1504 1506 1509 1511 1513 1515 1517 1518 1519 1521 1522 1523 1524 1525 1525 1526 1526 1527 1528 1529 1529 1529
1462 1464 1463 1464 1466 1479 1480 1468 1452 1458 1460 1461 1463 1465 1467 1469 1469 1471 1473 1475 1479 1482 1485 1488 1491 1494 1497 1500 1503 1506 1508 1510 1512 1513 1514 1515 1517 1518 1519 1520 1521 1522 1522 1523 1524 1525 1526 1526 1526
1453 1456 1461 1471 1473 1468 1470 1465 1452 1456 1459 1462 1464 1466 1467 1468 1469 1470 1472 1474 1476 1479 1482 1485 1488 1491 1494 1497 1499 1502 1504 1506 1508 1510 1511 1512 1513 1514 1516 1516 1517 1518 1519 1519 1520 1521 1522 1523 1523